sat.trackr.live / text

‹ back to catalog

LEMUR-2-HUBBLE-4

NORAD 64565 · 2025-135AP

PAYLOAD ACTIVE UNKNOWN

§ Identity

Operator
Country
US
Launch date
2025-06-23
Launch site
AFWTR
Launch vehicle
Mass (kg)
RCS (m²)

Purposes: earth_obs

External: N2YO · Heavens-Above · Gunter

§ Orbital elements

Epoch: 2026-09-19T06:13:29.049600Z

Period
96.40 min
Inclination
97.7769°
Eccentricity
0.0002143
Mean motion
14.93743316 rev/d
Perigee alt
584.8 km
Apogee alt
587.8 km
Semi-major
6,964.4 km
B*
1.2521e-4
RAAN
15.1190°
Arg perigee
12.9035°
Mean anomaly
347.2239°
Rev number
6,791

§ Raw data

LEMUR-2-HUBBLE-41 64565U 25135AP  26262.25936400  .00001269  00000+0  12521-3 0  99902 64565  97.7769  15.1190 0002143  12.9035 347.2239 14.93743316 67914

JSON: /api/v1/satellites/64565 · /tle

For live sub-satellite position, see the globe view (requires WebGL).

§ Visibility from observer

Set your observer location to see the next 7 days of passes ≥ 10°. The values pass through the URL so the page stays shareable.

No JS? Fill the form by hand. The geolocation button needs JavaScript.

§ Radio — SatNOGS DB

ModeDescriptionDownlinkUplink
FM Mode S - Transmitter 1 2.201 GHz
FM Mode S - Transmitter 2 2.023 GHz
FSK Mode U - FSK9k6 402.790 MHz
GMSK Mode U - GMSK4k8 (inactive) 401.100 MHz

4 transmitters · refreshed weekly from db.satnogs.org